[[{"header":{"parameterUnit":"m.s-1","parameterCategory":1,"la1":30.2991,"la2":30.254,"lo1":-89.0895,"lo2":-89.0444,"dy":0.0017,"dx":0.0017,"nx":28,"ny":28,"refTime":"2025-04-17T03:00:00:Z","depth":0,"parameterNumber":2,"parameterNumberName":"U-component_of_WINDS"},"data":[0,0,0,0,0,0,0,0,0,0,0,0,0,0,0,0,0,0,0,0,0,0,0,0,0,0,0,0,0,0,0,0,0,0,0,0,0,0,0,0,0,0,0,0,0,0,0,0,0,0,0,0,0,0,0,0,0,0,-3.2822,-3.2823,0,-3.2903,-3.2904,-3.2905,-3.2931,-3.2931,-3.293,-3.293,-3.3012,-3.3015,-3.3017,0,0,0,0,0,0,0,0,0,0,0,0,0,-3.2688,-3.269,-3.2822,-3.2823,-3.2824,-3.2903,-3.2904,-3.2905,-3.2931,-3.2931,-3.293,-3.293,-3.3011,-3.3014,-3.3017,0,0,0,0,0,0,0,0,0,0,0,0,0,-3.2755,-3.2691,-3.2822,-3.2846,-3.2849,-3.2903,-3.2904,-3.2906,-3.2931,-3.2931,-3.293,-3.2929,-3.301,-3.3014,-3.3018,-3.3053,0,0,-3.303,-3.3031,0,0,0,0,0,0,0,0,-3.2751,-3.276,-3.2842,-3.2845,-3.2848,-3.2906,-3.2887,-3.2955,-3.2931,-3.29,-3.293,-3.2929,-3.2977,-3.2984,-3.3,-3.3057,-3.306,-3.303,-3.3032,-3.3034,-3.3035,0,0,0,0,0,0,0,-3.2747,-3.2757,-3.2854,-3.2843,-3.2847,-3.2853,-3.2862,-3.29,-3.2941,-3.2903,-3.2905,-3.2914,-3.2979,-3.2997,-3.3003,-3.3061,-3.303,-3.3033,-3.3035,-3.3037,-3.315,-3.3151,0,0,0,0,0,0,-3.2738,-3.2753,-3.2851,-3.2856,-3.2797,-3.2856,-3.2866,-3.2888,-3.294,-3.2948,-3.2914,-3.2915,-3.299,-3.2998,-3.3005,-3.305,-3.3034,-3.3037,-3.304,-3.315,-3.3151,-3.3151,0,0,0,0,0,0,-3.2735,-3.2746,-3.2848,-3.2805,-3.2819,-3.2859,-3.2884,-3.289,-3.2908,-3.2949,-3.2957,-3.2925,-3.299,-3.3,-3.3041,-3.3053,-3.3039,-3.3043,-3.3149,-3.315,-3.3151,-3.3138,0,0,0,0,0,0,-3.2731,-3.2745,-3.2759,-3.2805,-3.2821,-3.2882,-3.2884,-3.2892,-3.2914,-3.2916,-3.2961,-3.2968,-3.2991,-3.3035,-3.3045,-3.3058,-3.3046,-3.3148,-3.3149,-3.3151,-3.3137,-3.3138,-3.3139,0,0,0,0,0,-3.2726,-3.2752,-3.2759,-3.2771,-3.2839,-3.2883,-3.2892,-3.2917,-3.2915,-3.2929,-3.2956,-3.2967,-3.305,-3.3039,-3.305,-3.3064,-3.3147,-3.3149,-3.315,-3.3137,-3.3138,-3.3139,0,0,0,0,0,0,-3.2705,-3.2758,-3.2767,-3.2809,-3.2841,-3.2887,-3.2905,-3.2918,-3.2951,-3.2951,-3.2981,-3.2991,-3.3029,-3.3051,-3.3038,-3.3101,-3.3099,-3.3103,-3.3085,-3.3087,-3.3087,-3.3081,-3.3049,0,0,0,0,0,-3.2706,-3.2737,-3.2782,-3.2814,-3.283,-3.2865,-3.2885,-3.2902,-3.2937,-3.295,-3.298,-3.3013,-3.3047,-3.3068,-3.3101,-3.3141,-3.3151,-3.3157,-3.3157,-3.3158,-3.3161,-3.3183,-3.3186,-3.3157,-3.3157,-3.3157,0,0,-3.2706,-3.2739,-3.2757,-3.2811,-3.2838,-3.2869,-3.2876,-3.2909,-3.2933,-3.2955,-3.2995,-3.3019,-3.3057,-3.3098,-3.3117,-3.3117,-3.3171,-3.316,-3.316,-3.3163,-3.3185,-3.3188,-3.319,-3.3158,-3.3158,-3.3157,0,0,-3.2724,-3.2752,-3.2782,-3.2809,-3.285,-3.2874,-3.2881,-3.2925,-3.2941,-3.2982,-3.3,-3.3028,-3.3086,-3.3113,-3.3134,-3.3162,-3.3173,-3.3172,-3.3177,-3.3198,-3.32,-3.3203,-3.3212,-3.3215,-3.3175,-3.3175,-3.3175,0,-3.2719,-3.2768,-3.2796,-3.2828,-3.2851,-3.2873,-3.2904,-3.2929,-3.2978,-3.2993,-3.2993,-3.3066,-3.3094,-3.314,-3.3147,-3.3164,-3.3173,-3.3167,-3.3198,-3.32,-3.3203,-3.3212,-3.3216,-3.3175,-3.3175,-3.3175,-3.3175,0,-3.276,-3.2794,-3.2813,-3.2861,-3.2886,-3.2917,-3.295,-3.2972,-3.2987,-3.301,-3.3052,-3.3086,-3.3127,-3.3139,-3.3154,-3.3188,-3.3187,-3.3192,-3.3191,-3.3205,-3.3214,-3.3218,-3.3174,-3.3174,-3.3174,-3.3174,0,0,-3.2766,-3.2829,-3.2836,-3.2857,-3.2905,-3.2931,-3.2964,-3.3004,-3.3022,-3.3056,-3.3083,-3.3132,-3.3137,-3.3161,-3.3179,-3.3198,-3.3218,-3.3201,-3.3203,-3.3202,-3.3258,-3.3253,-3.3257,-3.3226,-3.3227,-3.3228,-3.3254,0,-3.2789,-3.2847,-3.2874,-3.292,-3.2952,-3.2974,-3.3002,-3.3034,-3.3057,-3.3086,-3.3112,-3.3145,-3.315,-3.3164,-3.3184,-3.3212,-3.323,-3.321,-3.3252,-3.3253,-3.324,-3.3262,-3.3257,-3.328,-3.3258,-3.3259,-3.3259,0,-3.2823,-3.2857,-3.2907,-3.2951,-3.2965,-3.299,-3.3028,-3.3057,-3.3094,-3.3109,-3.3136,-3.3154,-3.3189,-3.3186,-3.3234,-3.322,-3.3239,-3.3255,-3.3257,-3.326,-3.3256,-3.3265,-3.3288,-3.3291,-3.3265,-3.3265,-3.3265,0,-3.2821,-3.2879,-3.2917,-3.2935,-3.2987,-3.3004,-3.3027,-3.3063,-3.3086,-3.312,-3.3135,-3.3172,-3.3193,-3.3222,-3.3249,-3.3244,-3.3294,-3.3294,-3.3308,-3.3307,-3.3316,-3.3315,-3.3341,-3.333,-3.333,-3.333,-3.333,0,-3.2843,-3.2872,-3.2917,-3.2939,-3.2973,-3.3003,-3.3036,-3.306,-3.3092,-3.312,-3.3142,-3.3168,-3.3203,-3.3233,-3.3255,-3.3291,-3.33,-3.3313,-3.3319,-3.3311,-3.3309,-3.3323,-3.3321,-3.3331,-3.333,-3.333,-3.333,0,-3.2846,-3.2877,-3.2919,-3.2965,-3.2977,-3.3,-3.304,-3.3063,-3.3087,-3.3122,-3.3132,-3.317,-3.3207,-3.3237,-3.3286,-3.33,-3.3338,-3.3344,-3.3325,-3.3328,-3.334,-3.3338,-3.3375,-3.3381,-3.3366,-3.3366,-3.3366,0,-3.2857,-3.2881,-3.293,-3.295,-3.2972,-3.3005,-3.3028,-3.3059,-3.3082,-3.3126,-3.3144,-3.3182,-3.3214,-3.3272,-3.3304,-3.3341,-3.3348,-3.3358,-3.3354,-3.3345,-3.3347,-3.3345,-3.3347,-3.3358,-3.3358,-3.3358,-3.3358,0,-3.2875,-3.2889,-3.2921,-3.296,-3.2987,-3.3018,-3.305,-3.3066,-3.3103,-3.3128,-3.3166,-3.3191,-3.324,-3.3278,-3.3318,-3.3342,-3.3356,-3.336,-3.3365,-3.3357,-3.3344,-3.335,-3.3325,-3.3359,-3.3358,-3.3358,-3.3358,-3.3358,-3.2882,-3.2903,-3.2941,-3.2977,-3.3004,-3.3034,-3.3058,-3.3085,-3.3118,-3.316,-3.3177,-3.3215,-3.3252,-3.3308,-3.3332,-3.3362,-3.3364,-3.3372,-3.3373,-3.3374,-3.3373,-3.334,-3.337,-3.337,-3.337,-3.337,-3.337,0,-3.2899,-3.2925,-3.2957,-3.3002,-3.303,-3.3042,-3.3078,-3.3101,-3.3134,-3.3168,-3.3199,-3.3243,-3.328,-3.3315,-3.3353,-3.3371,-3.3379,-3.338,-3.3379,-3.3384,-3.3369,-3.3361,-3.3374,-3.3374,-3.3374,-3.3373,-3.3373,-3.3373,-3.2912,-3.2949,-3.2967,-3.3018,-3.3044,-3.3082,-3.3102,-3.3129,-3.3156,-3.3204,-3.3234,-3.3257,-3.3291,-3.3333,-3.3367,-3.3377,-3.339,-3.3389,-3.34,-3.3386,-3.3385,-3.3384,-3.3376,-3.3392,-3.3392,-3.3412,-3.3412,-3.3412]},{"header":{"parameterUnit":"m.s-1","parameterCategory":1,"la1":30.2991,"la2":30.254,"lo1":-89.0895,"lo2":-89.0444,"dy":0.0017,"dx":0.0017,"nx":28,"ny":28,"refTime":"2025-04-17T03:00:00:Z","depth":0,"parameterNumber":3,"parameterNumberName":"V-component_of_WINDS"},"data":[0,0,0,0,0,0,0,0,0,0,0,0,0,0,0,0,0,0,0,0,0,0,0,0,0,0,0,0,0,0,0,0,0,0,0,0,0,0,0,0,0,0,0,0,0,0,0,0,0,0,0,0,0,0,0,0,0,0,4.2016,4.2016,0,4.2005,4.2005,4.2005,4.1973,4.1972,4.1972,4.1971,4.1959,4.1959,4.1959,0,0,0,0,0,0,0,0,0,0,0,0,0,4.2011,4.2011,4.2016,4.2016,4.2016,4.2005,4.2005,4.2005,4.1973,4.1972,4.1971,4.1971,4.1958,4.1959,4.1959,0,0,0,0,0,0,0,0,0,0,0,0,0,4.2008,4.2011,4.2016,4.1999,4.1997,4.2005,4.2005,4.2005,4.1973,4.1972,4.1971,4.197,4.1958,4.1959,4.1959,4.1983,0,0,4.1961,4.1961,0,0,0,0,0,0,0,0,4.2008,4.2008,4.2002,4.2,4.1998,4.1989,4.1998,4.1997,4.1974,4.1982,4.1971,4.197,4.197,4.1969,4.1969,4.1982,4.1982,4.1961,4.1961,4.1961,4.1961,0,0,0,0,0,0,0,4.2008,4.2008,4.2012,4.2002,4.2,4.1992,4.199,4.1998,4.1982,4.1982,4.1979,4.1978,4.1968,4.1969,4.1969,4.1981,4.1961,4.1961,4.1961,4.1962,4.2016,4.2017,0,0,0,0,0,0,4.2011,4.2009,4.2012,4.2012,4.2001,4.1993,4.1991,4.1993,4.1982,4.1979,4.1979,4.1977,4.1969,4.1968,4.1968,4.1997,4.1961,4.1962,4.1962,4.2014,4.2016,4.2017,0,0,0,0,0,0,4.2011,4.2011,4.2013,4.2009,4.2009,4.1994,4.1997,4.1994,4.1994,4.198,4.1977,4.1983,4.1968,4.1967,4.198,4.1996,4.1962,4.1962,4.2013,4.2015,4.2016,4.2054,0,0,0,0,0,0,4.2011,4.2012,4.202,4.201,4.2009,4.2025,4.1998,4.1994,4.1995,4.1992,4.1982,4.198,4.1967,4.1979,4.198,4.1996,4.1963,4.2012,4.2014,4.2016,4.2051,4.2056,4.2061,0,0,0,0,0,4.2011,4.2031,4.2021,4.2022,4.202,4.2026,4.2025,4.2011,4.1996,4.2005,4.1997,4.198,4.1994,4.1981,4.1982,4.1998,4.2011,4.2013,4.2016,4.2049,4.2055,4.2061,0,0,0,0,0,0,4.2043,4.2029,4.2018,4.2035,4.2032,4.202,4.2031,4.2018,4.2018,4.2015,4.1996,4.1994,4.201,4.2005,4.1991,4.2021,4.2,4.2002,4.2024,4.203,4.2035,4.2037,4.1963,0,0,0,0,0,4.2052,4.2058,4.2045,4.2061,4.2061,4.2046,4.2048,4.2037,4.2033,4.2031,4.2023,4.202,4.2024,4.2026,4.2029,4.2049,4.2048,4.2061,4.2066,4.207,4.2073,4.2086,4.2092,4.2026,4.2026,4.2026,0,0,4.207,4.2064,4.2068,4.2068,4.2064,4.2071,4.2045,4.2053,4.2059,4.2032,4.2045,4.2039,4.2033,4.2051,4.2058,4.2047,4.2091,4.2073,4.2077,4.2078,4.2089,4.2096,4.2102,4.2027,4.2027,4.2027,0,0,4.2109,4.2103,4.2118,4.2115,4.211,4.21,4.2104,4.2095,4.209,4.2102,4.2083,4.2089,4.2095,4.2093,4.2092,4.2131,4.2117,4.2133,4.216,4.2172,4.2178,4.2182,4.2198,4.2204,4.2135,4.2136,4.2136,0,4.2133,4.2143,4.2126,4.2137,4.2138,4.2114,4.2129,4.2127,4.2123,4.2124,4.2112,4.2121,4.2115,4.2133,4.2143,4.2142,4.2147,4.2134,4.2178,4.2183,4.2187,4.2202,4.2208,4.2138,4.2137,4.2137,4.2137,0,4.2174,4.2181,4.2193,4.2191,4.2193,4.2205,4.2191,4.2195,4.2184,4.2176,4.2189,4.2182,4.2184,4.2187,4.2175,4.2203,4.2197,4.2182,4.216,4.2196,4.221,4.2215,4.2141,4.214,4.2139,4.2139,0,0,4.2232,4.2222,4.2227,4.2226,4.222,4.2225,4.2237,4.2239,4.2244,4.2242,4.2252,4.2258,4.2245,4.2244,4.2232,4.2243,4.2278,4.2227,4.2226,4.2238,4.231,4.2324,4.2331,4.2267,4.2268,4.2269,4.2312,0,4.227,4.229,4.2276,4.2299,4.2307,4.2285,4.2296,4.2293,4.2286,4.2291,4.2283,4.2289,4.2269,4.227,4.2279,4.2271,4.2292,4.2268,4.2278,4.2279,4.2282,4.2337,4.2351,4.2392,4.2317,4.2318,4.2318,0,4.2318,4.2319,4.2343,4.2337,4.2339,4.2349,4.2351,4.2356,4.2353,4.2347,4.2348,4.2333,4.2345,4.2323,4.2339,4.2323,4.2326,4.2323,4.2324,4.2326,4.2302,4.2343,4.2404,4.2411,4.2326,4.2326,4.2325,0,4.2361,4.2369,4.2385,4.2384,4.2377,4.2384,4.2381,4.2377,4.238,4.2381,4.2383,4.2385,4.2387,4.239,4.2377,4.2361,4.2396,4.2372,4.2393,4.2393,4.2402,4.2402,4.2467,4.2401,4.2401,4.2401,4.2401,0,4.2406,4.2422,4.2404,4.2414,4.2432,4.2415,4.2433,4.2428,4.2424,4.2433,4.2414,4.2423,4.2404,4.2411,4.2401,4.2418,4.2418,4.2414,4.2412,4.2417,4.2418,4.2421,4.2418,4.2402,4.2402,4.2402,4.2401,0,4.2459,4.2447,4.2463,4.2455,4.2453,4.2467,4.2459,4.2469,4.246,4.2472,4.2474,4.2461,4.2468,4.2455,4.2461,4.2454,4.2478,4.247,4.248,4.2478,4.25,4.2499,4.2571,4.258,4.2506,4.2507,4.2507,0,4.2489,4.2501,4.2495,4.25,4.2498,4.2506,4.2509,4.2493,4.2498,4.2496,4.2506,4.2511,4.2516,4.2529,4.252,4.2524,4.2518,4.2542,4.2518,4.2524,4.2521,4.2521,4.2523,4.2548,4.2549,4.2549,4.255,0,4.2546,4.254,4.2546,4.255,4.2554,4.2557,4.2557,4.2562,4.2546,4.2551,4.2559,4.2563,4.2569,4.2576,4.2578,4.2575,4.2561,4.2557,4.2563,4.257,4.2576,4.2575,4.2495,4.2556,4.2556,4.2555,4.2555,4.2555,4.259,4.2601,4.2598,4.2606,4.2605,4.2606,4.2615,4.2608,4.2615,4.2619,4.2609,4.262,4.2618,4.262,4.2619,4.2627,4.2616,4.2624,4.2626,4.2628,4.2633,4.2573,4.2627,4.2627,4.2627,4.2626,4.2626,0,4.2648,4.2646,4.2652,4.2655,4.2661,4.2646,4.2647,4.2653,4.2663,4.2662,4.2667,4.2677,4.2683,4.2675,4.2681,4.2689,4.2683,4.2692,4.2692,4.2692,4.2641,4.2637,4.2697,4.2697,4.2697,4.2697,4.2697,4.2697,4.2679,4.2697,4.2691,4.2708,4.2705,4.2716,4.2718,4.272,4.2719,4.2732,4.2737,4.2732,4.2729,4.2734,4.274,4.2738,4.2742,4.2753,4.2749,4.2702,4.2695,4.2689,4.2685,4.2754,4.2754,4.2799,4.2799,4.28]}]]